www.pogodaiklimat.ru

Погода и климат >> Архив погоды >> Турция >> Балыкесир


ПОГОДА в Балыкесире

  • Прогноз погоды в Балыкесире
  • Монитор погоды в Балыкесире

АРХИВ ПОГОДЫ в Балыкесире

Время (UTC), дата Ветер
(напр.,м/с)
 
Видим.   Явления Облачность Т
(С)
Тd
(С)
f
(%)
Тe
(С)
Тes
(С)
Комфортность P
(гПа)
Po
(гПа)
Тmin
(С)
Tmax
(С)
R
(мм)
R24
(мм)
S
(см)
12 15.01 С 9
{17}
10 км слаб. ливневой дождь 9/6 450 м
[Cu med, cong Ac und]
+3.4 +1.3 86 -3 -3 1000.1 987.7 3
15 15.01 С 4
{14}
10 км слаб. ливневой дождь 9/8 300 м
[Cu med, cong Ac und]
+2.0 +0.8 92 -3 -3 1003.5 991.0
18 15.01 С 5
{14}
10 км слаб. ливневой дождь со снегом 9/8 300 м
[Cu med, cong Ac und]
+1.8 +0.4 90 -4 -4 1007.6 995.1 +6.2 5
21 15.01 С 4
{12}
10 км слаб. ливневой дождь со снегом 9/8 600 м
[Cu med, cong Ac und]
+0.6 -1.2 88 -5 -5 1012.5 999.9
00 16.01 С 5
{12}
10 км {ливн. осадки} 5/5 1050 м
[Cu hum]
+0.7 -3.7 72 -5 -5 1013.9 1001.2 0.0
03 16.01 С 5
{9}
10 км 4/4 1050 м
[Cu hum]
+0.4 -5.3 66 -5 -5 1015.4 1002.6
06 16.01 С 4 10 км 1/1 1050 м
[Cu hum]
-1.1 -5.2 74 -6 -6 1016.9 1004.1 -1.3 0.0
09 16.01 С 4
{6}
10 км 1/1 1050 м
[Cu hum]
+2.2 -5.0 59 -2 +1 1018.8 1006.0
12 16.01 штиль 0
{7}
10 км 1/1 1050 м
[Cu hum]
+4.3 -5.9 47 +4 +9 1017.7 1005.0
15 16.01 штиль 0
{3}
10 км ясно +3.8 -4.2 56 +3 +3 1018.3 1005.5
18 16.01 штиль 0
{4}
10 км 3/3 1050 м
[Cu hum]
+1.6 -3.2 70 +1 +1 1020.2 1007.3 +5.6
21 16.01 штиль 0 10 км 1/1 1050 м
[Cu hum]
-1.6 -2.7 92 -3 -3 1021.9 1009.0
00 17.01 штиль 0 10 км 1/1 1050 м
[Cu hum]
-0.4 -2.0 89 -2 -2 1022.2 1009.4
03 17.01 штиль 0 10 км 5/3 1050 м
[Cu hum Ac trans]
-0.3 -1.3 93 -2 -2 1022.3 1009.5
06 17.01 штиль 0 10 км 8/8 1200 м
[Sc diur, vesp]
-0.1 -0.9 94 -1 -1 1023.3 1010.4 -1.6
09 17.01 штиль 0 10 км 3/0
[Ac trans]
+5.1 -1.0 65 +5 +10 1023.9 1011.1
12 17.01 штиль 0
{2}
10 км ясно +9.7 +1.9 58 +9 +15 1021.7 1009.0
15 17.01 штиль 0 10 км ясно +9.7 +2.7 62 +9 +9 1021.6 1008.9
18 17.01 штиль 0
{2}
10 км ясно +3.1 +0.7 84 +2 +2 1022.6 1009.8 +12.5
21 17.01 штиль 0
{2}
10 км ясно +3.1 +0.7 84 +2 +2 1022.6 1009.8 +12.5
00 18.01 штиль 0 6000 м дымка ясно -1.0 -1.3 98 -2 -2 1022.4 1009.7
03 18.01 штиль 0 6000 м дымка ясно -2.2 -2.2 100 -4 -4 1021.6 1008.9
06 18.01 штиль 0 2500 м дымка ясно -2.9 -2.9 100 -4 -4 1022.2 1009.3 -2.9
09 18.01 штиль 0 7000 м дымка ясно +5.3 +1.7 78 +4 +11 1022.3 1009.5
12 18.01 штиль 0
{2}
10 км 4/3 1050 м
[Cu hum Ci fib]
+11.7 +3.5 57 +11 +15 1019.9 1007.3
15 18.01 Ю 1
{5}
10 км 8/1 1050 м
[Cu hum Ac trans Ci fib]
+11.0 +4.3 63 +12 +12 1020.1 1007.4
18 18.01 штиль 0
{5}
10 км 4/1 1050 м
[Cu hum Ci fib]
+7.6 +3.6 76 +7 +7 1020.4 1007.6 +13.5
21 18.01 штиль 0
{3}
10 км 4/1 1050 м
[Cu hum Ci fib]
+4.3 +3.0 91 +3 +3 1020.6 1007.9
00 19.01 штиль 0
{3}
10 км 4/1 1050 м
[Cu hum Ci fib]
+1.9 +1.4 96 +1 +1 1020.8 1008.2
03 19.01 ЮЗ 1
{2}
10 км 6/5 1050 м
[Cu hum Ac trans]
+3.2 +3.0 99 +1 +1 1020.6 1008.0
06 19.01 штиль 0 10 км слаб. ливневой дождь 9/4 1050 м
[Cu med, cong Ac und]
+4.4 +4.2 99 +3 +3 1021.3 1008.7 +1.5 0.0
09 19.01 штиль 0
{2}
10 км {ливн. осадки} 9/4 1050 м
[Cu med, cong Ac und]
+7.7 +5.9 88 +7 +9 1022.2 1009.6
12 19.01 штиль 0
{3}
10 км {ливн. осадки} 8/4 1050 м
[Cu med, cong Ac und]
+10.7 +8.3 85 +10 +12 1020.9 1008.3 0.2
15 19.01 штиль 0
{4}
10 км 8/4 1050 м
[Cu med, cong Ac und]
+10.3 +7.6 83 +10 +10 1020.7 1008.1
18 19.01 штиль 0
{4}
10 км слаб. ливневой дождь 9/5 1050 м
[Cu med, cong Ac und]
+8.4 +8.0 97 +7 +7 1021.2 1008.6 +12.8 0.6
21 19.01 штиль 0 10 км дымка {ливн. осадки} 9/5 1050 м
[Cu med, cong Ac und]
+7.0 +6.8 99 +6 +6 1021.6 1009.0
00 20.01 штиль 0 1600 м дымка {ливн. осадки} 9/5 1050 м
[Cu med, cong Ac und]
+4.8 +4.6 99 +4 +4 1021.0 1008.5 0.2
03 20.01 штиль 0 1600 м дымка {туман} 9/5 1050 м
[Cu med, cong Ac und]
+4.8 +4.6 99 +4 +4 1020.6 1008.1
06 20.01 штиль 0 400 м туман 9/5 1050 м
[Cu med, cong Ac und]
+3.8 +3.6 99 +3 +3 1020.7 1008.1 +3.1 0.2
09 20.01 С 1
{2}
3000 м слаб. ливневой дождь {туман} 9/5 1050 м
[Cu med, cong Ac und]
+7.3 +7.1 99 +6 +7 1021.0 1008.4
12 20.01 Ю 4
{7}
10 км {ливн. осадки, туман} 9/5 1050 м
[Cu med, cong Ac und]
+14.2 +6.4 59 +13 +14 1018.2 1005.8 1
15 20.01 Ю 4
{8}
10 км 6/4 1050 м
[Cu hum Ac lent]
+13.1 +5.9 62 +12 +12 1017.2 1004.8
18 20.01 штиль 0
{8}
10 км 8/4 1050 м
[Cu med, cong Ac und]
+7.3 +5.9 91 +6 +6 1018.0 1005.4 +14.5 1
21 20.01 Ю 1
{7}
10 км слаб. ливневой дождь 8/5 1050 м
[Cu med, cong Ac und]
+9.2 +6.7 84 +9 +9 1018.3 1005.8
00 21.01 З 1
{7}
10 км {ливн. осадки} 8/5 1050 м
[Cu med, cong Ac und]
+6.3 +6.1 99 +6 +6 1017.5 1005.1 0.4
03 21.01 штиль 0
{2}
10 км в посл. час ливневой дождь 9/5 1050 м
[Cu med, cong Ac und]
+5.7 +5.3 97 +5 +5 1016.9 1004.5
06 21.01 штиль 0 10 км {ливн. осадки} 8/4 1050 м
[Cu hum Ac trans]
+5.5 +5.3 99 +4 +4 1017.3 1004.8 +4.6 0.4
09 21.01 штиль 0
{2}
10 км 9/4 1050 м
[Cu hum Ac trans]
+9.7 +7.2 84 +9 +11 1017.9 1005.5
12 21.01 штиль 0
{3}
10 км 9/4 1050 м
[Cu hum Ac trans]
+12.2 +7.1 71 +12 +14 1016.5 1004.1
15 21.01 С 5
{7}
10 км слаб. ливневой дождь 9/6 600 м
[Cu med, cong Ac und]
+10.2 +6.3 77 +7 +7 1017.1 1004.6
18 21.01 С 5
{9}
10 км в посл. час ливневой дождь 9/6 600 м
[Cu med, cong Ac und]
+7.8 +6.4 91 +4 +4 1019.0 1006.4 +12.4 0.0
21 21.01 С 4
{9}
10 км 9/6 300 м
[Cu med, cong Ac trans]
+6.9 +5.9 93 +3 +3 1019.8 1007.3
00 22.01 С 3
{9}
10 км 8/8 300 м
[Cu med, cong]
+6.4 +5.6 95 +3 +3 1020.1 1007.7
03 22.01 штиль 0
{6}
10 км 8/8 300 м
[Cu med, cong]
+6.3 +5.1 92 +5 +5 1019.5 1007.0
06 22.01 штиль 0 3200 м дымка 8/8 400 м
[Cu med, cong]
+5.1 +4.7 97 +4 +4 1019.4 1006.8 +5.0
09 22.01 В 1
{2}
5000 м дымка 9/9 360 м
[Sc diur, vesp]
+7.5 +4.8 83 +8 +8 1019.6 1007.1

 

Местоположение метеостанции Балыкесир (Турция): широта 39.62 долгота 27.92 высота над уровнем моря 102 м.

В архиве по умолчанию представлена погода в Балыкесире за последнюю неделю. Архивные данные за месяц целиком и за предыдущие месяцы, начиная с января 2011 года, Вы можете получить, выбрав интересующий диапазон дат из раскрывающегося списка и нажав кнопку "Ввод!".


*Определитесь, кто Вы:
робот инопланетянин человек

Внимание! Время в таблицах - всемирное. Для получения местного времени необходимо прибавить поправку, которая равна 2 ч.

Смотрите также архив погоды в соседних городах и на ближайших метеорологических станциях:

Погода в Бандырм (Турция) (78 км)
Погода в Акхисаре (Турция) (78 км)
Погода в Дикили (Турция) (110 км)
Погода в Айвалыке (Турция) (111 км)
Погода в Бурсе (Турция) (116 км)
Погода в Манисе (Турция) (119 км)
Погода в Митилини (Греция) (129 км)
Погода в Чанаккале (Турция) (142 км)
Погода в Измир / Сигли (Турция) (147 км)
Погода в Измире (Турция) (147 км)

Пояснения к столбцам:

Ветер - указаны скорость ветра в м/с - средняя за 10 мин, порывы в срок и между сроками (в фигурных скобках) и направление, откуда дует ветер: С - северный, СВ - северо-восточный, В - восточный, ЮВ - юго-восточный, Ю - южный, ЮЗ - юго-западный, З - западный, СЗ - северо-западный.
Видимость - горизонтальная дальность видимости в метрах или километрах. При видимости от 1 до 10 км при отсутствии осадков обычно наблюдается дымка, при ухудшении видимости до 1 км и менее - туман. В сухую погоду видимость может ухудшаться дымом, пылью или мглою.
Явления - указаны атмосферные явления, наблюдавшиеся в срок или в последний час перед сроком; фигурными скобками обозначены явления, наблюдавшиеся между сроками (за 1-3 часа до срока); квадратными скобками обозначены град или гололедные отложения с указанием их диаметра в мм.
Облачность - указаны через наклонную черту общая и нижняя облачность в баллах и высота нижней границы облаков в метрах; квадратными скобками обозначены формы облаков: Ci - перистые, Cs - перисто-слоистые, Cc - перисто-кучевые, Ac - высококучевые, As - высокослоистые, Sc - слоисто-кучевые, Ns - слоисто-дождевые, Cu - кучевые, Cb - кучево-дождевые. Подробнее классификацию облаков см. в Атласе облаков (PDF).
T - Температура воздуха - температура, измеренная на высоте 2 м над землей.
Td - Температура точки росы - температура, при понижении до которой содержащийся в воздухе водяной пар достигнет насыщения.
f - Относительная влажность воздуха - влажноcть воздуха, измеренная на высоте 2 м над землей.
Te - Эффективная температура - температура, которую ощущает одетый по сезону человек в тени. Характеристика душности погоды. При расчете учитывается влияние влажности воздуха и скорости ветра на теплоощущения человека.
Tes - Эффективная температура на солнце - температура, которую ощущает человек, с поправкой на солнечный нагрев. Характеристика знойности погоды. Зависит от высоты солнца над горизонтом, облачности и скорости ветра. Ночью, в пасмурную погоду, а также при ветре 12 м/с и более поправка равна нулю.
P - Атмосферное давление - приведенное к уровню моря атмосферное давление.
Po - Атмосферное давление - измеренное на уровне метеостанции атмосферное давление.
Tmin - Минимальная температура - минимум температуры воздуха на высоте 2 м над землей.
Tmax - Максимальная температура - максимум температуры воздуха на высоте 2 м над землей.
R - Количество осадков - Количество выпавших осадков за период времени, мм. При наведении курсора мыши на число - период времени, за который выпало указанное количество осадков.
R24 - Количество осадков - Количество выпавших осадков за 24 часа, мм.
S - Снежный покров - Высота снежного покрова, см. При наведении курсора мыши на число - состояние снежного покрова и степень покрытия местности в баллах.